STARLINK-4294 (53176 NORAD) Tracking and Keplerian Element Data

This shows tracking and keplerian element data for the satellite.

Feedback or suggestion? Click here.




ElementValue
Catalog53176
NameSTARLINK-4294
Epoch Orbit130
Epoch Day269.91667824
Epoch Year2022
RAAN53.8316
Inclination53.2149
Eccentricity0.0004695
Argument of Perigee4.4096
Mean Anonmoly20.1946
Mean Motion15.73197596
Decay Rate0.00034521
L11 53176U 22083AW 22269.91667824 .00034521 00000+0 24929-3 0 9994
L22 53176 53.2149 53.8316 0004695 4.4096 20.1946 15.73197596 1300

Live tracking and technical data element details for STARLINK-4294 (NORAD 53176). STARLINK-4294 can be tracked NOW for your location showing map with azimuth and elevation plus other details from your city location.

Track the satellite on the map from your city or location and see movement details for azimuth, elevation, latitude, longitude, range, height, and movement on the map or in text.







IsCatalogInMostPopularTable: catalog: 53176, numindb: 7
Update: records affected: 1



GetName: 53176 STARLINK-4294

Hit Count: updated at: Wed, 28 Sep 2022 23:36:22 GMT